www.pogodaiklimat.ru

Погода и климат >> Архив погоды >> Австралия >> Западная Австралия >> Барроу-Айленд


ПОГОДА в Барроу-Айленд

  • Прогноз погоды в Барроу-Айленд
  • Монитор погоды в Барроу-Айленд

АРХИВ ПОГОДЫ в Барроу-Айленд

Время (UTC), дата Ветер
(напр.,м/с)
 
Видим.   Явления Облачность Т
(С)
Тd
(С)
f
(%)
Тe
(С)
Тes
(С)
Комфортность P
(гПа)
Po
(гПа)
Тmin
(С)
Tmax
(С)
R
(мм)
R24
(мм)
S
(см)
13 14.05 С 4 н/о н/о +21.3 +13.0 59 +24 +24 комфорт 1017.6 1016.8 +27.1
16 14.05 ЮВ 2 н/о н/о +23.1 +19.1 78 +29 +29 очень
душно
1017.4 1016.6
19 14.05 Ю 6 н/о н/о +22.6 +17.9 75 +28 +28 душно 1017.1 1016.3
22 14.05 Ю 7 н/о н/о +22.0 +16.5 71 +26 +26 душно 1017.3 1016.5
01 15.05 ЮВ 6 н/о н/о +25.3 +11.8 43 +27 +27 жарко 1018.4 1017.6 +19.4
04 15.05 В 5 н/о н/о +26.5 +11.0 38 +27 +27 жарко 1017.0 1016.2
07 15.05 СВ 6 н/о н/о +26.9 +15.6 50 +30 +30 душно 1015.4 1014.6
10 15.05 СВ 4 н/о н/о +24.7 +17.7 65 +29 +29 душно 1015.7 1014.9
13 15.05 С 3 н/о н/о +20.7 +15.9 74 +24 +24 комфорт 1017.0 1016.2 +27.4
16 15.05 ЮЗ 2 н/о н/о +21.3 +17.3 78 +25 +25 комфорт 1016.5 1015.7
19 15.05 Ю 4 н/о н/о +22.6 +19.2 81 +29 +29 очень
душно
1015.8 1015.0
22 15.05 Ю 5 н/о н/о +22.3 +18.1 77 +27 +27 душно 1016.2 1015.4
01 16.05 ЮВ 4 н/о н/о +25.9 +17.3 59 +30 +30 душно 1017.2 1016.4 +19.1
04 16.05 ЮВ 3 н/о н/о +26.9 +15.6 50 +30 +30 душно 1016.1 1015.3
07 16.05 З 3 н/о н/о +27.1 +16.7 53 +31 +31 душно 1014.7 1013.9
10 16.05 ЮЗ 3 н/о н/о +24.6 +18.5 69 +29 +29 душно 1015.1 1014.3
13 16.05 З 4 н/о н/о +21.2 +16.8 76 +25 +25 комфорт 1016.2 1015.4 +28.4
16 16.05 З 4 н/о н/о +20.1 +15.3 74 +23 +23 комфорт 1015.7 1014.9
19 16.05 Ю 3 н/о н/о +23.4 +21.3 88 +31 +31 очень
душно
1014.8 1014.0
22 16.05 ЮЗ 1 н/о н/о +19.1 +17.6 91 +22 +22 комфорт 1014.7 1013.9
01 17.05 Ю 6 н/о н/о +24.5 +16.2 60 +28 +28 душно 1015.7 1014.9 +18.6
04 17.05 Ю 4 н/о н/о +26.9 +13.6 44 +29 +29 жарко 1014.9 1014.1
07 17.05 ЮЗ 5 н/о н/о +28.4 +12.3 37 +30 +30 жарко 1012.8 1012.0
10 17.05 З 4 н/о н/о +25.3 +17.7 63 +30 +30 душно 1013.4 1012.6
13 17.05 З 5 н/о н/о +23.0 +19.0 78 +29 +29 очень
душно
1014.6 1013.8 +29.5
16 17.05 Ю 8 н/о н/о +25.3 +14.4 51 +28 +28 жарко 1014.5 1013.7
19 17.05 Ю 8 н/о н/о +23.9 +13.2 51 +26 +26 жарко 1013.9 1013.1
22 17.05 ЮВ 5 н/о н/о +22.8 +13.3 55 +26 +26 жарко 1014.1 1013.3
01 18.05 В 5 н/о н/о +25.7 +14.8 51 +28 +28 жарко 1016.1 1015.3 +22.8
04 18.05 В 9 н/о н/о +26.1 +14.2 48 +28 +28 жарко 1015.4 1014.6
07 18.05 СВ 8 н/о н/о +25.9 +17.5 60 +30 +30 душно 1014.3 1013.5
10 18.05 СВ 4 н/о н/о +23.8 +18.2 71 +28 +28 душно 1015.0 1014.2
13 18.05 С 2 н/о н/о +21.2 +17.4 79 +25 +25 комфорт 1016.7 1015.9 +26.6
16 18.05 С 2 н/о н/о +19.5 +16.7 84 +22 +22 комфорт 1016.4 1015.6
19 18.05 штиль 0 н/о н/о +19.8 +17.9 89 +22 +22 комфорт 1015.9 1015.1
22 18.05 СВ 2 н/о н/о +19.6 +18.4 93 +23 +23 комфорт 1015.9 1015.1
01 19.05 В 4 н/о н/о +24.2 +19.7 76 +29 +29 душно 1018.0 1017.2 +18.2
04 19.05 В 4 н/о н/о +25.1 +17.8 64 +29 +29 душно 1017.1 1016.3
07 19.05 СВ 6 н/о н/о +26.5 +17.3 57 +31 +31 душно 1015.4 1014.6
10 19.05 СВ 4 н/о н/о +24.0 +19.1 74 +29 +29 душно 1015.3 1014.5
13 19.05 С 3 н/о н/о +20.3 +16.5 79 +24 +24 комфорт 1017.0 1016.2 +27.1
16 19.05 СЗ 2 н/о н/о +19.5 +16.9 85 +22 +22 комфорт 1017.6 1016.8
19 19.05 З 2 н/о н/о +19.8 +17.9 89 +23 +23 комфорт 1016.9 1016.1
22 19.05 Ю 5 н/о н/о +22.0 +19.7 87 +28 +28 душно 1017.4 1016.6
01 20.05 Ю 6 н/о н/о +24.2 +19.7 76 +29 +29 душно 1018.9 1018.1 +18.8
04 20.05 Ю 5 н/о н/о +25.6 +18.5 65 +30 +30 душно 1018.1 1017.3
07 20.05 ЮЗ 5 н/о н/о +26.2 +18.8 64 +31 +31 очень
душно
1016.6 1015.8
10 20.05 ЮЗ 4 н/о н/о +24.0 +18.2 70 +28 +28 душно 1016.7 1015.9
13 20.05 ЮЗ 5 н/о н/о +23.2 +20.0 82 +30 +30 очень
душно
1017.8 1017.0 +26.9
16 20.05 Ю 7 н/о н/о +24.6 +19.7 74 +30 +30 очень
душно
1017.4 1016.6
19 20.05 Ю 7 н/о н/о +24.0 +18.4 71 +28 +28 душно 1016.6 1015.8
22 20.05 Ю 3 н/о н/о +22.8 +16.4 67 +27 +27 душно 1017.1 1016.3
01 21.05 Ю 3 н/о н/о +25.7 +16.8 58 +29 +29 душно 1018.4 1017.6 +21.7
04 21.05 Ю 4 н/о н/о +27.2 +18.5 59 +32 +32 очень
душно
1017.2 1016.4
07 21.05 ЮЗ 4 н/о н/о +27.0 +18.8 61 +32 +32 очень
душно
1015.9 1015.1
10 21.05 З 3 н/о н/о +24.7 +16.9 62 +28 +28 душно 1016.4 1015.6
13 21.05 З 4 н/о н/о +22.2 +18.0 77 +27 +27 душно 1017.9 1017.1 +28.4

 

Местоположение метеостанции Барроу-Айленд (Западная Австралия, Австралия): широта -20.88 долгота 115.40 высота над уровнем моря 7 м.

В архиве по умолчанию представлена погода в Барроу-Айленд за последнюю неделю. Архивные данные за месяц целиком и за предыдущие месяцы, начиная с января 2011 года, Вы можете получить, выбрав интересующий диапазон дат из раскрывающегося списка и нажав кнопку "Ввод!".


*Определитесь, кто Вы:
робот инопланетянин человек

Внимание! Время в таблицах - всемирное. Для получения местного времени необходимо прибавить поправку, которая равна 8 ч.

Смотрите также архив погоды в соседних городах и на ближайших метеорологических станциях:

Погода на Острове Варанас (Западная Австралия, Австралия) (31 км)
Погода в Марди (Западная Австралия, Австралия) (68 км)
Погода на Острове Тевенард (Западная Австралия, Австралия) (75 км)
Погода в Онслоу (Западная Австралия, Австралия) (93 км)
Погода в Каррате (Западная Австралия, Австралия) (144 км)
Погода в Роборн аэропорту (Западная Австралия, Австралия) (183 км)
Погода в Лермонте (Западная Австралия, Австралия) (203 км)
Погода в Порт-Хедленде Apardoo (Западная Австралия, Австралия) (341 км)
Погода в Параберду (Западная Австралия, Австралия) (352 км)
Погода в Марбл-баре (Западная Австралия, Австралия) (453 км)

Пояснения к столбцам:

Ветер - указаны скорость ветра в м/с - средняя за 10 мин, порывы в срок и между сроками (в фигурных скобках) и направление, откуда дует ветер: С - северный, СВ - северо-восточный, В - восточный, ЮВ - юго-восточный, Ю - южный, ЮЗ - юго-западный, З - западный, СЗ - северо-западный.
Видимость - горизонтальная дальность видимости в метрах или километрах. При видимости от 1 до 10 км при отсутствии осадков обычно наблюдается дымка, при ухудшении видимости до 1 км и менее - туман. В сухую погоду видимость может ухудшаться дымом, пылью или мглою.
Явления - указаны атмосферные явления, наблюдавшиеся в срок или в последний час перед сроком; фигурными скобками обозначены явления, наблюдавшиеся между сроками (за 1-3 часа до срока); квадратными скобками обозначены град или гололедные отложения с указанием их диаметра в мм.
Облачность - указаны через наклонную черту общая и нижняя облачность в баллах и высота нижней границы облаков в метрах; квадратными скобками обозначены формы облаков: Ci - перистые, Cs - перисто-слоистые, Cc - перисто-кучевые, Ac - высококучевые, As - высокослоистые, Sc - слоисто-кучевые, Ns - слоисто-дождевые, Cu - кучевые, Cb - кучево-дождевые. Подробнее классификацию облаков см. в Атласе облаков (PDF).
T - Температура воздуха - температура, измеренная на высоте 2 м над землей.
Td - Температура точки росы - температура, при понижении до которой содержащийся в воздухе водяной пар достигнет насыщения.
f - Относительная влажность воздуха - влажноcть воздуха, измеренная на высоте 2 м над землей.
Te - Эффективная температура - температура, которую ощущает одетый по сезону человек в тени. Характеристика душности погоды. При расчете учитывается влияние влажности воздуха и скорости ветра на теплоощущения человека.
Tes - Эффективная температура на солнце - температура, которую ощущает человек, с поправкой на солнечный нагрев. Характеристика знойности погоды. Зависит от высоты солнца над горизонтом, облачности и скорости ветра. Ночью, в пасмурную погоду, а также при ветре 12 м/с и более поправка равна нулю.
P - Атмосферное давление - приведенное к уровню моря атмосферное давление.
Po - Атмосферное давление - измеренное на уровне метеостанции атмосферное давление.
Tmin - Минимальная температура - минимум температуры воздуха на высоте 2 м над землей.
Tmax - Максимальная температура - максимум температуры воздуха на высоте 2 м над землей.
R - Количество осадков - Количество выпавших осадков за период времени, мм. При наведении курсора мыши на число - период времени, за который выпало указанное количество осадков.
R24 - Количество осадков - Количество выпавших осадков за 24 часа, мм.
S - Снежный покров - Высота снежного покрова, см. При наведении курсора мыши на число - состояние снежного покрова и степень покрытия местности в баллах.